This is the latest recevied weather packets stored in our database for station/object N7NIP. If no packets are shown the sender has not sent any weather packets the latest 10 day(s).
| Time | Temp. | Humidity | Pressure | Rain* | Wind** | Luminosity | Snow |
|---|---|---|---|---|---|---|---|
| 1777587464 | 21.67° C | 53% | 1031.9 hPa | 0 mm | - | 418 W/m² | - |
| 1777587162 | 22.22° C | 53% | 1032 hPa | 0 mm | - | 499 W/m² | - |
| 1777586857 | 22.22° C | 54% | 1031.9 hPa | 0 mm | - | 563 W/m² | - |
| 1777586553 | 22.22° C | 54% | 1032.1 hPa | 0 mm | - | 770 W/m² | - |
| 1777586249 | 22.22° C | 54% | 1032.2 hPa | 0 mm | - | 729 W/m² | - |
| 1777585946 | 21.67° C | 55% | 1032.1 hPa | 0 mm | - | 712 W/m² | - |
| 1777585642 | 21.67° C | 53% | 1032.1 hPa | 0 mm | - | 736 W/m² | - |
| 1777585337 | 21.11° C | 53% | 1032.2 hPa | 0 mm | - | 785 W/m² | - |
| 1777585032 | 21.67° C | 53% | 1032.3 hPa | 0 mm | - | 683 W/m² | - |
| 1777584729 | 21.67° C | 54% | 1032.2 hPa | 0 mm | - | 599 W/m² | - |
| 1777584427 | 21.11° C | 54% | 1032.3 hPa | 0 mm | - | 560 W/m² | - |
| 1777584123 | 21.67° C | 52% | 1032.4 hPa | 0 mm | - | 594 W/m² | - |
| 1777583821 | 21.11° C | 51% | 1032.3 hPa | 0 mm | - | 545 W/m² | - |
| 1777583517 | 21.67° C | 48% | 1032.4 hPa | 0 mm | - | 656 W/m² | - |
| 1777583211 | 22.22° C | 49% | 1032.3 hPa | 0 mm | - | 817 W/m² | - |
| 1777582906 | 22.22° C | 52% | 1032.5 hPa | 0 mm | - | 808 W/m² | - |
| 1777582604 | 22.22° C | 50% | 1032.4 hPa | 0 mm | - | 945 W/m² | - |
| 1777582299 | 22.22° C | 50% | 1032.5 hPa | 0 mm | - | 873 W/m² | - |
| 1777581997 | 21.67° C | 53% | 1032.6 hPa | 0 mm | - | 914 W/m² | - |
| 1777581692 | 21.67° C | 52% | 1032.4 hPa | 0 mm | - | 896 W/m² | - |
| 1777581387 | 21.67° C | 53% | 1032.5 hPa | 0 mm | - | 882 W/m² | - |
| 1777581087 | 21.11° C | 56% | 1032.8 hPa | 0 mm | - | 833 W/m² | - |
| 1777580786 | 20.56° C | 57% | 1032.7 hPa | 0 mm | - | 752 W/m² | - |
| 1777580483 | 20.56° C | 57% | 1032.7 hPa | 0 mm | - | 534 W/m² | - |
| 1777580183 | 20.56° C | 56% | 1032.9 hPa | 0 mm | - | 546 W/m² | - |
* Rain latest hour (hover to see other rain measurements)
** Current wind speed in m/s (hover to see current wind gust speed)